AAL25 RJTT-KLAX

Flight info

Callsign AAL25
Flight time N/A
Altitude 33000
Route OPPAR4 OPPAR DCT UTIBO Y803 POROT Y809 AVBET OTR9 EMRON DCT 41N160E/N0486F350 43N170E 44N180E 46N170W 47N160W 47N150W/N0472F370 44N140W 41N130W DCT SHENU DCT ENI DCT OAK DCT BURGL IRNMN2
Aircraft B77W/H-SDE1E2E3FGHIJ2J3J4J5M1RWXY/LB1D1

Departure

Time 2026-04-30 18:35
Airport Tokyo Haneda International Airport (RJTT)

Arrival

Time N/A
Airport Los Angeles International Airport (KLAX)
Time Latitude Longitude Altitude Speed Heading
2026-04-30 18:08 35.55022 139.77037 28 ft 0 kts 148°
2026-04-30 18:09 35.54974 139.76970 28 ft 0 kts 150°
2026-04-30 18:15 35.54975 139.76970 27 ft 0 kts 150°
2026-04-30 18:21 35.54982 139.76965 27 ft 3 kts 147°
2026-04-30 18:21 35.55001 139.76949 26 ft 3 kts 137°
2026-04-30 18:22 35.55017 139.76929 25 ft 3 kts 125°
2026-04-30 18:22 35.55033 139.76881 27 ft 3 kts 88°
2026-04-30 18:22 35.55030 139.76858 25 ft 3 kts 61°
2026-04-30 18:23 35.55028 139.76854 25 ft 0 kts 58°
2026-04-30 18:26 35.55046 139.76890 27 ft 5 kts 60°
2026-04-30 18:26 35.55064 139.76930 27 ft 5 kts 60°
2026-04-30 18:26 35.55087 139.76981 27 ft 8 kts 61°
2026-04-30 18:27 35.55135 139.77090 27 ft 5 kts 63°
2026-04-30 18:27 35.55132 139.77132 27 ft 5 kts 120°
2026-04-30 18:28 35.55058 139.77191 26 ft 9 kts 149°
2026-04-30 18:28 35.54994 139.77237 28 ft 16 kts 150°
2026-04-30 18:28 35.54794 139.77379 28 ft 16 kts 150°
2026-04-30 18:29 35.54695 139.77449 28 ft 16 kts 150°
2026-04-30 18:29 35.54397 139.77659 28 ft 16 kts 149°
2026-04-30 18:30 35.54200 139.77800 28 ft 16 kts 150°
2026-04-30 18:30 35.54007 139.77937 28 ft 10 kts 149°
2026-04-30 18:31 35.53965 139.77968 28 ft 6 kts 149°
2026-04-30 18:31 35.53956 139.78062 28 ft 6 kts 62°
2026-04-30 18:32 35.54000 139.78157 28 ft 6 kts 60°
2026-04-30 18:32 35.54023 139.78204 28 ft 6 kts 60°
2026-04-30 18:32 35.54056 139.78264 28 ft 3 kts 36°
2026-04-30 18:33 35.54079 139.78263 28 ft 3 kts 346°
2026-04-30 18:33 35.54106 139.78246 28 ft 0 kts 329°
2026-04-30 18:34 35.54736 139.77802 28 ft 139 kts 329°
2026-04-30 18:34 35.55822 139.77030 182 ft 208 kts 331°
2026-04-30 18:35 35.57088 139.76118 1447 ft 220 kts 331°
2026-04-30 18:35 35.58512 139.75395 2177 ft 228 kts 360°
2026-04-30 18:35 35.60000 139.75859 2645 ft 220 kts 43°
2026-04-30 18:36 35.60586 139.79113 3424 ft 211 kts 122°
2026-04-30 18:36 35.59895 139.80764 3581 ft 234 kts 105°
2026-04-30 18:36 35.59422 139.84912 4656 ft 251 kts 106°
2026-04-30 18:37 35.59101 139.87033 5348 ft 256 kts 98°
2026-04-30 18:37 35.59202 139.89285 5931 ft 270 kts 88°
2026-04-30 18:37 35.59499 139.91595 6626 ft 276 kts 86°
2026-04-30 18:37 35.59829 139.93914 7289 ft 280 kts 86°
2026-04-30 18:38 35.60166 139.96295 7995 ft 284 kts 86°
2026-04-30 18:38 35.60499 139.98709 8662 ft 289 kts 86°
2026-04-30 18:38 35.60827 140.01167 9321 ft 294 kts 86°
2026-04-30 18:38 35.61153 140.03681 9959 ft 300 kts 86°
2026-04-30 18:39 35.61477 140.06241 10542 ft 305 kts 86°
2026-04-30 18:39 35.61802 140.08843 11122 ft 310 kts 86°
2026-04-30 18:39 35.62125 140.11473 11519 ft 324 kts 85°
2026-04-30 18:39 35.62466 140.14284 11901 ft 337 kts 85°
2026-04-30 18:40 35.62815 140.17173 12433 ft 346 kts 85°
2026-04-30 18:40 35.63171 140.20123 13082 ft 351 kts 84°
2026-04-30 18:40 35.63527 140.23085 13717 ft 358 kts 84°
2026-04-30 18:40 35.63895 140.26162 14168 ft 368 kts 84°
2026-04-30 18:41 35.64271 140.29313 14706 ft 375 kts 84°
2026-04-30 18:41 35.64648 140.32482 15316 ft 380 kts 84°
2026-04-30 18:41 35.65032 140.35717 15960 ft 384 kts 84°
2026-04-30 18:41 35.65420 140.38998 16573 ft 389 kts 84°
2026-04-30 18:42 35.65810 140.42309 17173 ft 393 kts 84°
2026-04-30 18:42 35.66598 140.49031 18365 ft 403 kts 83°
2026-04-30 18:42 35.67001 140.52475 18878 ft 407 kts 83°
2026-04-30 18:45 35.71332 140.90150 22878 ft 482 kts 84°
2026-04-30 18:45 35.71802 140.94295 22992 ft 495 kts 84°
2026-04-30 18:45 35.72280 140.98538 23134 ft 506 kts 84°
2026-04-30 18:46 35.72766 141.02858 23449 ft 512 kts 84°
2026-04-30 18:46 35.73248 141.07151 23872 ft 513 kts 84°
2026-04-30 18:46 35.73736 141.11504 24383 ft 512 kts 84°
2026-04-30 18:46 35.74221 141.15850 24868 ft 512 kts 84°
2026-04-30 18:47 35.74705 141.20202 25316 ft 513 kts 85°
2026-04-30 18:47 35.75189 141.24568 25782 ft 514 kts 85°
2026-04-30 18:47 35.75670 141.28939 26256 ft 515 kts 85°
2026-04-30 18:47 35.76151 141.33315 26745 ft 515 kts 85°
2026-04-30 18:48 35.76631 141.37694 27228 ft 516 kts 85°
2026-04-30 18:48 35.77108 141.42071 27722 ft 516 kts 85°
2026-04-30 18:48 35.77586 141.46467 28193 ft 517 kts 85°
2026-04-30 18:48 35.78062 141.50860 28669 ft 518 kts 85°
2026-04-30 18:49 35.78537 141.55259 29158 ft 519 kts 85°
2026-04-30 18:49 35.79011 141.59664 29623 ft 520 kts 85°
2026-04-30 18:49 35.79479 141.64032 30067 ft 521 kts 85°
2026-04-30 18:49 35.79952 141.68460 30461 ft 521 kts 85°
2026-04-30 18:50 35.80425 141.72903 30626 ft 528 kts 85°
2026-04-30 18:50 35.81387 141.82030 30756 ft 545 kts 85°
2026-04-30 18:51 35.82371 141.91414 30885 ft 559 kts 85°
2026-04-30 18:51 35.83376 142.01034 30999 ft 571 kts 85°
2026-04-30 18:52 35.84390 142.10806 31362 ft 575 kts 85°
2026-04-30 18:52 35.84893 142.15681 31723 ft 572 kts 85°
2026-04-30 18:52 35.85393 142.20542 32015 ft 572 kts 85°
2026-04-30 18:52 35.85890 142.25408 32251 ft 572 kts 85°
2026-04-30 18:53 35.86385 142.30277 32481 ft 573 kts 85°
2026-04-30 18:53 35.86877 142.35148 32707 ft 573 kts 85°
2026-04-30 18:53 35.87362 142.39962 32938 ft 573 kts 85°
2026-04-30 18:53 35.87852 142.44851 33051 ft 576 kts 85°
2026-04-30 18:54 35.88341 142.49758 33105 ft 576 kts 85°
2026-04-30 18:54 35.89314 142.59550 33108 ft 573 kts 85°
2026-04-30 18:55 35.90273 142.69280 33102 ft 570 kts 85°
2026-04-30 18:55 35.91692 142.83842 33125 ft 570 kts 85°
2026-04-30 18:56 36.09586 144.86973 33287 ft 577 kts 85°
2026-04-30 18:57 36.15780 145.49448 33209 ft 579 kts 66°
2026-04-30 18:57 36.19379 145.58288 33209 ft 573 kts 56°
2026-04-30 18:58 36.43850 146.11265 33297 ft 578 kts 57°
2026-04-30 18:58 36.76990 146.85035 33154 ft 586 kts 56°
2026-04-30 18:59 36.89198 147.12547 33155 ft 579 kts 56°
2026-04-30 19:00 36.95605 147.26977 33272 ft 580 kts 56°
2026-04-30 19:00 36.97553 147.31408 33276 ft 582 kts 56°
2026-04-30 19:01 37.44338 148.39824 33618 ft 595 kts 56°
2026-04-30 19:01 37.49209 148.51347 33359 ft 589 kts 56°
2026-04-30 19:02 37.70892 149.03063 33255 ft 569 kts 56°
2026-04-30 19:02 38.00568 149.75203 33526 ft 589 kts 56°
2026-04-30 19:03 38.08661 149.95201 33266 ft 570 kts 56°
2026-04-30 19:03 38.21688 150.32256 33380 ft 583 kts 60°
2026-04-30 19:04 38.34738 150.70675 33352 ft 590 kts 60°
2026-04-30 19:04 38.70378 151.78258 33271 ft 569 kts 59°
2026-04-30 19:05 39.04227 152.84391 33712 ft 591 kts 60°
2026-04-30 19:05 39.07255 152.94153 33421 ft 581 kts 60°
2026-04-30 19:06 39.10236 153.03768 33342 ft 577 kts 60°
2026-04-30 19:06 39.14695 153.18140 33349 ft 576 kts 60°
2026-04-30 19:07 39.21596 153.40533 33357 ft 582 kts 60°
2026-04-30 19:08 39.45235 154.18809 33293 ft 577 kts 60°
2026-04-30 19:09 39.60499 154.70516 33414 ft 586 kts 60°
2026-04-30 19:09 39.71972 155.10150 33306 ft 578 kts 60°
2026-04-30 19:10 39.95305 155.92517 33365 ft 582 kts 60°
2026-04-30 19:11 40.06179 156.31816 33254 ft 569 kts 61°
2026-04-30 19:11 40.12731 156.55803 33309 ft 570 kts 61°
2026-04-30 19:12 40.15392 156.65591 33341 ft 578 kts 62°
2026-04-30 19:12 40.18067 156.75505 33340 ft 579 kts 62°
2026-04-30 19:13 40.23380 156.95320 33329 ft 574 kts 62°
2026-04-30 19:14 40.26008 157.05163 33331 ft 572 kts 62°
2026-04-30 19:14 40.28620 157.14977 33319 ft 569 kts 62°
2026-04-30 19:15 40.31215 157.24767 33323 ft 568 kts 62°
2026-04-30 19:15 40.35082 157.39425 33331 ft 567 kts 62°
2026-04-30 19:16 40.37651 157.49214 33328 ft 567 kts 62°
2026-04-30 19:17 40.41472 157.63848 33325 ft 568 kts 62°
2026-04-30 19:17 40.45293 157.78577 33324 ft 569 kts 62°
2026-04-30 19:18 40.49100 157.93335 33319 ft 569 kts 62°
2026-04-30 19:19 40.51630 158.03194 33307 ft 569 kts 62°
2026-04-30 19:19 40.55403 158.17972 33310 ft 568 kts 62°
2026-04-30 19:20 40.57908 158.27833 33320 ft 568 kts 62°
2026-04-30 19:21 40.61636 158.42584 33310 ft 568 kts 63°
2026-04-30 19:22 40.66597 158.62357 33305 ft 568 kts 63°
2026-04-30 19:23 40.73981 158.92090 33298 ft 569 kts 63°
2026-04-30 19:24 40.77643 159.06977 33280 ft 569 kts 63°
2026-04-30 19:25 40.83695 159.31791 33287 ft 569 kts 63°
2026-04-30 19:26 40.88516 159.51745 33287 ft 570 kts 63°
2026-04-30 19:27 40.92110 159.66737 33281 ft 571 kts 63°
2026-04-30 19:28 40.95689 159.81763 33264 ft 571 kts 63°
2026-04-30 19:29 41.00418 160.01751 33264 ft 570 kts 62°
2026-04-30 19:30 41.05376 160.21626 33261 ft 567 kts 61°
2026-04-30 19:31 41.10319 160.41490 33247 ft 566 kts 62°
2026-04-30 19:31 41.13960 160.56336 33236 ft 565 kts 62°
2026-04-30 19:32 41.16383 160.66265 33240 ft 564 kts 62°
2026-04-30 19:32 41.18794 160.76175 33245 ft 563 kts 62°
2026-04-30 19:33 41.21193 160.86078 33238 ft 563 kts 62°
2026-04-30 19:33 41.23579 160.95970 33221 ft 562 kts 62°
2026-04-30 19:34 41.25939 161.05802 33225 ft 561 kts 62°
2026-04-30 19:35 41.29478 161.20620 33223 ft 560 kts 62°
2026-04-30 19:35 41.31825 161.30499 33223 ft 559 kts 62°
2026-04-30 19:36 41.34156 161.40354 33218 ft 558 kts 62°
2026-04-30 19:36 41.37628 161.55113 33212 ft 556 kts 62°
2026-04-30 19:37 41.39915 161.64887 33205 ft 555 kts 62°
2026-04-30 19:37 41.42202 161.74701 33195 ft 554 kts 62°
2026-04-30 19:38 41.44477 161.84510 33195 ft 553 kts 63°
2026-04-30 19:38 41.46739 161.94301 33200 ft 552 kts 63°
2026-04-30 19:39 41.48990 162.04086 33196 ft 551 kts 63°
2026-04-30 19:39 41.51230 162.13866 33183 ft 551 kts 63°
2026-04-30 19:40 41.53460 162.23651 33188 ft 551 kts 63°
2026-04-30 19:40 41.55683 162.33445 33181 ft 551 kts 63°
2026-04-30 19:41 41.57882 162.43176 33178 ft 551 kts 64°
2026-04-30 19:41 41.60090 162.52991 33178 ft 551 kts 64°
2026-04-30 19:42 41.62290 162.62816 33168 ft 551 kts 64°
2026-04-30 19:42 41.64480 162.72639 33170 ft 551 kts 64°
2026-04-30 19:43 41.66664 162.82477 33162 ft 551 kts 64°
2026-04-30 19:44 41.69921 162.97241 33141 ft 551 kts 65°
2026-04-30 19:44 41.72082 163.07089 33145 ft 552 kts 65°
2026-04-30 19:45 41.74237 163.16952 33144 ft 552 kts 65°
2026-04-30 19:45 41.76368 163.26756 33144 ft 552 kts 65°
2026-04-30 19:46 41.78507 163.36640 33147 ft 552 kts 66°
2026-04-30 19:46 41.80639 163.46536 33138 ft 552 kts 66°
2026-04-30 19:47 41.82761 163.56429 33135 ft 552 kts 66°
2026-04-30 19:47 41.84876 163.66340 33123 ft 552 kts 66°
2026-04-30 19:48 41.86979 163.76243 33127 ft 552 kts 67°
2026-04-30 19:48 41.89075 163.86157 33109 ft 552 kts 67°
2026-04-30 19:49 41.91150 163.96018 33112 ft 551 kts 67°
2026-04-30 19:49 41.94261 164.10886 33111 ft 551 kts 68°
2026-04-30 19:50 41.96324 164.20809 33109 ft 551 kts 68°
2026-04-30 19:50 41.98382 164.30750 33102 ft 551 kts 68°
2026-04-30 19:51 42.00429 164.40692 33088 ft 551 kts 68°
2026-04-30 19:51 42.02455 164.50575 33088 ft 552 kts 68°
2026-04-30 19:52 42.04488 164.60545 33086 ft 552 kts 69°
2026-04-30 19:52 42.06512 164.70514 33079 ft 552 kts 69°
2026-04-30 19:53 42.08526 164.80486 33076 ft 552 kts 69°
2026-04-30 19:53 42.10534 164.90475 33074 ft 552 kts 69°
2026-04-30 19:54 42.12522 165.00415 33068 ft 552 kts 69°
2026-04-30 19:54 42.14511 165.10411 33066 ft 552 kts 70°
2026-04-30 19:55 42.16492 165.20417 33063 ft 552 kts 70°
2026-04-30 19:55 42.18464 165.30425 33053 ft 552 kts 70°
2026-04-30 19:56 42.20426 165.40438 33044 ft 552 kts 70°
2026-04-30 19:56 42.22049 165.48757 33042 ft 551 kts 70°
2026-04-30 19:57 42.24310 165.60403 33043 ft 551 kts 70°
2026-04-30 19:57 42.26245 165.70427 33038 ft 551 kts 71°
2026-04-30 19:58 42.27846 165.78756 33035 ft 551 kts 71°
2026-04-30 19:58 42.29762 165.88775 33028 ft 551 kts 71°
2026-04-30 19:59 42.31671 165.98808 33026 ft 551 kts 71°
2026-04-30 20:00 42.34504 166.13795 33019 ft 551 kts 71°
2026-04-30 20:00 42.36394 166.23856 33019 ft 551 kts 71°
2026-04-30 20:01 42.39204 166.38919 33011 ft 551 kts 71°
2026-04-30 20:01 42.41067 166.48968 33012 ft 551 kts 72°
2026-04-30 20:02 42.43844 166.64051 33005 ft 551 kts 72°
2026-04-30 20:03 42.46604 166.79165 32999 ft 551 kts 72°
2026-04-30 20:03 42.48432 166.89240 32993 ft 550 kts 72°
2026-04-30 20:04 42.50237 166.99242 32980 ft 550 kts 72°
2026-04-30 20:05 42.52946 167.14358 32984 ft 549 kts 73°
2026-04-30 20:05 42.55633 167.29476 32970 ft 549 kts 73°
2026-04-30 20:06 42.57412 167.39555 32976 ft 549 kts 73°
2026-04-30 20:06 42.59184 167.49647 32972 ft 549 kts 73°
2026-04-30 20:07 42.60946 167.59743 32964 ft 549 kts 73°
2026-04-30 20:08 42.63562 167.74836 32960 ft 549 kts 73°
2026-04-30 20:08 42.65303 167.84946 32949 ft 549 kts 74°
2026-04-30 20:09 42.67032 167.95052 32950 ft 549 kts 74°
2026-04-30 20:09 42.69613 168.10235 32942 ft 549 kts 74°
2026-04-30 20:10 42.72172 168.25430 32936 ft 549 kts 74°
2026-04-30 20:11 42.74698 168.40553 32928 ft 548 kts 75°
2026-04-30 20:11 42.76379 168.50686 32923 ft 548 kts 75°
2026-04-30 20:12 42.78879 168.65875 32919 ft 548 kts 75°
2026-04-30 20:13 42.80534 168.76008 32909 ft 548 kts 75°
2026-04-30 20:13 42.82182 168.86153 32906 ft 548 kts 75°
2026-04-30 20:14 42.83810 168.96237 32906 ft 548 kts 75°
2026-04-30 20:14 42.85441 169.06397 32895 ft 548 kts 75°
2026-04-30 20:15 42.87061 169.16556 32895 ft 548 kts 76°
2026-04-30 20:15 42.88673 169.26724 32886 ft 548 kts 76°
2026-04-30 20:16 42.90264 169.36818 32890 ft 548 kts 76°
2026-04-30 20:16 42.91857 169.46992 32884 ft 548 kts 76°
2026-04-30 20:17 42.93441 169.57168 32873 ft 548 kts 76°
2026-04-30 20:17 42.95017 169.67356 32872 ft 548 kts 76°
2026-04-30 20:18 42.96571 169.77462 32867 ft 548 kts 76°
2026-04-30 20:18 42.98127 169.87650 32864 ft 548 kts 76°
2026-04-30 20:19 42.99675 169.97843 32859 ft 548 kts 77°
2026-04-30 20:19 43.01194 170.08060 32858 ft 549 kts 77°
2026-04-30 20:20 43.02666 170.18298 32857 ft 549 kts 77°
2026-04-30 20:20 43.04117 170.28471 32846 ft 549 kts 77°
2026-04-30 20:21 43.05574 170.38715 32840 ft 548 kts 77°
2026-04-30 20:21 43.07025 170.48951 32835 ft 548 kts 77°
2026-04-30 20:22 43.08469 170.59200 32835 ft 548 kts 78°
2026-04-30 20:22 43.09901 170.69441 32829 ft 548 kts 78°
2026-04-30 20:23 43.11326 170.79703 32827 ft 548 kts 78°
2026-04-30 20:23 43.12741 170.89968 32824 ft 549 kts 78°
2026-04-30 20:24 43.14138 171.00171 32812 ft 549 kts 78°
2026-04-30 20:24 43.15537 171.10462 32824 ft 549 kts 78°
2026-04-30 20:25 43.17617 171.25898 32806 ft 549 kts 78°
2026-04-30 20:26 43.19678 171.41349 32803 ft 550 kts 78°
2026-04-30 20:26 43.21720 171.56832 32795 ft 550 kts 79°
2026-04-30 20:27 43.24403 171.77440 32787 ft 550 kts 79°
2026-04-30 20:28 43.27060 171.98149 32781 ft 551 kts 79°
2026-04-30 20:30 43.30323 172.24010 32770 ft 551 kts 79°
2026-04-30 20:31 43.34177 172.55213 32759 ft 552 kts 80°
2026-04-30 20:32 43.37326 172.81256 32754 ft 553 kts 80°
2026-04-30 20:33 43.39181 172.96851 32742 ft 553 kts 81°
2026-04-30 20:34 43.41025 173.12536 32736 ft 554 kts 81°
2026-04-30 20:35 43.42849 173.28242 32734 ft 554 kts 81°
2026-04-30 20:35 43.44651 173.43963 32729 ft 555 kts 81°
2026-04-30 20:36 43.45843 173.54468 32724 ft 555 kts 81°
2026-04-30 20:37 43.47607 173.70181 32720 ft 556 kts 81°
2026-04-30 20:37 43.48777 173.80712 32716 ft 556 kts 81°
2026-04-30 20:38 43.49937 173.91247 32708 ft 556 kts 82°
2026-04-30 20:38 43.51088 174.01788 32705 ft 557 kts 82°
2026-04-30 20:39 43.52797 174.17622 32704 ft 557 kts 82°
2026-04-30 20:40 43.54486 174.33480 32697 ft 558 kts 82°
2026-04-30 20:40 43.55602 174.44079 32693 ft 558 kts 82°
2026-04-30 20:41 43.57251 174.59917 32690 ft 559 kts 83°
2026-04-30 20:41 43.58344 174.70533 32682 ft 559 kts 83°
2026-04-30 20:42 43.59427 174.81160 32678 ft 560 kts 83°
2026-04-30 20:43 43.61037 174.97143 32672 ft 560 kts 83°
2026-04-30 20:43 43.62100 175.07819 32669 ft 561 kts 83°
2026-04-30 20:44 43.63667 175.23756 32670 ft 561 kts 83°
2026-04-30 20:45 43.65734 175.45140 32669 ft 562 kts 84°
2026-04-30 20:45 43.66755 175.55865 32663 ft 563 kts 84°
2026-04-30 20:46 43.68599 175.75520 32661 ft 563 kts 84°
2026-04-30 20:47 43.70085 175.91641 32651 ft 564 kts 84°
2026-04-30 20:48 43.71552 176.07799 32642 ft 565 kts 85°
2026-04-30 20:48 43.72511 176.18504 32646 ft 565 kts 85°
2026-04-30 20:49 43.73467 176.29301 32641 ft 565 kts 85°
2026-04-30 20:50 43.74883 176.45502 32636 ft 565 kts 85°
2026-04-30 20:50 43.75813 176.56301 32638 ft 566 kts 85°
2026-04-30 20:51 43.76734 176.67109 32639 ft 566 kts 85°
2026-04-30 20:51 43.78092 176.83279 32639 ft 567 kts 86°
2026-04-30 20:52 43.78989 176.94110 32633 ft 567 kts 86°
2026-04-30 20:53 43.80319 177.10408 32634 ft 567 kts 86°
2026-04-30 20:53 43.81191 177.21261 32633 ft 567 kts 86°
2026-04-30 20:54 43.82480 177.37548 32630 ft 567 kts 87°
2026-04-30 20:55 43.83742 177.53790 32626 ft 568 kts 87°
2026-04-30 20:55 43.84574 177.64670 32629 ft 568 kts 87°
2026-04-30 20:56 43.85804 177.81020 32634 ft 569 kts 88°
2026-04-30 20:57 43.87014 177.97403 32635 ft 570 kts 88°
2026-04-30 20:57 43.87802 178.08267 32637 ft 570 kts 88°
2026-04-30 20:58 43.88976 178.24709 32638 ft 572 kts 88°
2026-04-30 20:58 43.89746 178.35686 32638 ft 572 kts 88°
2026-04-30 20:59 43.90884 178.52187 32637 ft 573 kts 89°
2026-04-30 21:00 43.92362 178.74169 32629 ft 575 kts 89°
2026-04-30 21:01 43.93449 178.90754 32634 ft 576 kts 89°
2026-04-30 21:02 43.94515 179.07400 32648 ft 578 kts 90°
2026-04-30 21:02 43.95211 179.18475 32640 ft 579 kts 90°
2026-04-30 21:03 43.95900 179.29619 32643 ft 580 kts 90°
2026-04-30 21:03 43.96580 179.40793 32647 ft 581 kts 90°
2026-04-30 21:04 43.97250 179.51966 32648 ft 581 kts 90°
2026-04-30 21:04 43.98233 179.68745 32646 ft 582 kts 91°
2026-04-30 21:05 43.98876 179.79947 32643 ft 582 kts 91°
2026-04-30 21:05 43.99510 179.91153 32644 ft 582 kts 91°
2026-04-30 21:06 44.00716 -179.97638 32644 ft 590 kts 81°
2026-04-30 21:06 44.03144 -179.86770 32654 ft 594 kts 73°
2026-04-30 21:07 44.05949 -179.75941 32649 ft 596 kts 73°
2026-04-30 21:07 44.08727 -179.65064 32653 ft 596 kts 73°
2026-04-30 21:08 44.11442 -179.54147 32646 ft 597 kts 74°
2026-04-30 21:08 44.14125 -179.43213 32642 ft 597 kts 74°
2026-04-30 21:09 44.16800 -179.32269 32640 ft 597 kts 74°
2026-04-30 21:09 44.19451 -179.21391 32641 ft 597 kts 75°
2026-04-30 21:10 44.22113 -179.10431 32647 ft 597 kts 75°
2026-04-30 21:10 44.24768 -178.99446 32639 ft 598 kts 75°
2026-04-30 21:11 44.27414 -178.88440 32646 ft 598 kts 75°
2026-04-30 21:11 44.30056 -178.77396 32645 ft 599 kts 75°
2026-04-30 21:12 44.32687 -178.66347 32645 ft 600 kts 75°
2026-04-30 21:12 44.35309 -178.55275 32651 ft 601 kts 75°
2026-04-30 21:13 44.37927 -178.44170 32643 ft 601 kts 76°
2026-04-30 21:13 44.40519 -178.33119 32650 ft 602 kts 76°
2026-04-30 21:14 44.43122 -178.21966 32643 ft 603 kts 76°
2026-04-30 21:14 44.45716 -178.10789 32645 ft 604 kts 76°
2026-04-30 21:15 44.48303 -177.99592 32646 ft 605 kts 76°
2026-04-30 21:15 44.50884 -177.88362 32650 ft 606 kts 76°
2026-04-30 21:16 44.53460 -177.77091 32648 ft 607 kts 77°
2026-04-30 21:16 44.56028 -177.65802 32642 ft 608 kts 77°
2026-04-30 21:17 44.58577 -177.54535 32643 ft 610 kts 77°
2026-04-30 21:17 44.61134 -177.43177 32646 ft 611 kts 77°
2026-04-30 21:18 44.63683 -177.31790 32643 ft 612 kts 77°
2026-04-30 21:18 44.66229 -177.20355 32646 ft 614 kts 77°
2026-04-30 21:19 44.68770 -177.08883 32647 ft 616 kts 78°
2026-04-30 21:19 44.71308 -176.97364 32638 ft 617 kts 78°
2026-04-30 21:20 44.73837 -176.85823 32640 ft 619 kts 78°
2026-04-30 21:20 44.76364 -176.74224 32636 ft 620 kts 78°
2026-04-30 21:21 44.78882 -176.62604 32638 ft 621 kts 78°
2026-04-30 21:22 44.82633 -176.45176 32636 ft 623 kts 78°
2026-04-30 21:23 44.87629 -176.21730 32635 ft 626 kts 79°
2026-04-30 21:23 44.91357 -176.04058 32634 ft 627 kts 79°
2026-04-30 21:24 44.93837 -175.92221 32632 ft 628 kts 79°
2026-04-30 21:24 44.96290 -175.80441 32632 ft 629 kts 79°
2026-04-30 21:25 44.99977 -175.62606 32635 ft 630 kts 79°
2026-04-30 21:26 45.03638 -175.44743 32629 ft 631 kts 80°
2026-04-30 21:27 45.07278 -175.26818 32636 ft 632 kts 80°
2026-04-30 21:27 45.09675 -175.14926 32626 ft 633 kts 80°
2026-04-30 21:28 45.13277 -174.96919 32614 ft 634 kts 80°
2026-04-30 21:29 45.16857 -174.78863 32626 ft 635 kts 80°
2026-04-30 21:30 45.22776 -174.48633 32626 ft 637 kts 81°
2026-04-30 21:31 45.28636 -174.18229 32626 ft 639 kts 81°
2026-04-30 21:32 45.32107 -173.99992 32623 ft 640 kts 81°
2026-04-30 21:32 45.34416 -173.87764 32625 ft 640 kts 81°
2026-04-30 21:33 45.37857 -173.69392 32616 ft 641 kts 81°
2026-04-30 21:34 45.40123 -173.57194 32625 ft 641 kts 81°
2026-04-30 21:34 45.43150 -173.40767 32612 ft 641 kts 81°
2026-04-30 21:35 45.45385 -173.28553 32613 ft 641 kts 81°
2026-04-30 21:35 45.47620 -173.16248 32610 ft 641 kts 81°
2026-04-30 21:36 45.49840 -173.03949 32605 ft 641 kts 81°
2026-04-30 21:37 45.54239 -172.79323 32605 ft 641 kts 81°
2026-04-30 21:37 45.56419 -172.66996 32607 ft 640 kts 81°
2026-04-30 21:38 45.58584 -172.54673 32598 ft 639 kts 82°
2026-04-30 21:38 45.60733 -172.42349 32595 ft 639 kts 82°
2026-04-30 21:39 45.62852 -172.30112 32598 ft 638 kts 82°
2026-04-30 21:39 45.64973 -172.17784 32601 ft 638 kts 82°
2026-04-30 21:40 45.67079 -172.05453 32591 ft 638 kts 82°
2026-04-30 21:40 45.69170 -171.93119 32597 ft 638 kts 82°
2026-04-30 21:41 45.71246 -171.80791 32585 ft 637 kts 82°
2026-04-30 21:41 45.73311 -171.68441 32595 ft 637 kts 82°
2026-04-30 21:42 45.75358 -171.56108 32589 ft 637 kts 82°
2026-04-30 21:42 45.77383 -171.43819 32584 ft 637 kts 82°
2026-04-30 21:43 45.79406 -171.31455 32582 ft 637 kts 82°
2026-04-30 21:43 45.81417 -171.19073 32576 ft 637 kts 82°
2026-04-30 21:44 45.83413 -171.06689 32579 ft 637 kts 82°
2026-04-30 21:44 45.85393 -170.94317 32578 ft 636 kts 82°
2026-04-30 21:45 45.87350 -170.81994 32580 ft 636 kts 82°
2026-04-30 21:45 45.89306 -170.69588 32569 ft 635 kts 82°
2026-04-30 21:46 45.91241 -170.57219 32567 ft 635 kts 82°
2026-04-30 21:46 45.93162 -170.44843 32562 ft 634 kts 82°
2026-04-30 21:47 45.95068 -170.32472 32565 ft 634 kts 83°
2026-04-30 21:47 45.96959 -170.20100 32561 ft 633 kts 83°
2026-04-30 21:48 45.98835 -170.07735 32562 ft 633 kts 83°
2026-04-30 21:48 46.00694 -169.95361 32556 ft 632 kts 83°
2026-04-30 21:49 46.02485 -169.83047 32545 ft 631 kts 83°
2026-04-30 21:49 46.04251 -169.70674 32552 ft 631 kts 83°
2026-04-30 21:50 46.06007 -169.58314 32555 ft 630 kts 83°
2026-04-30 21:50 46.07760 -169.45930 32539 ft 630 kts 83°
2026-04-30 21:51 46.09497 -169.33570 32534 ft 630 kts 83°
2026-04-30 21:51 46.11221 -169.21192 32530 ft 629 kts 83°
2026-04-30 21:52 46.12920 -169.08885 32532 ft 629 kts 83°
2026-04-30 21:52 46.14612 -168.96525 32527 ft 628 kts 83°
2026-04-30 21:53 46.16293 -168.84137 32527 ft 628 kts 83°
2026-04-30 21:53 46.17957 -168.71773 32516 ft 627 kts 83°
2026-04-30 21:54 46.19607 -168.59406 32516 ft 627 kts 83°
2026-04-30 21:54 46.21243 -168.47040 32512 ft 626 kts 83°
2026-04-30 21:55 46.22851 -168.34775 32516 ft 625 kts 84°
2026-04-30 21:55 46.24456 -168.22425 32507 ft 624 kts 84°
2026-04-30 21:56 46.26043 -168.10101 32500 ft 623 kts 84°
2026-04-30 21:56 46.27617 -167.97773 32503 ft 623 kts 84°
2026-04-30 21:57 46.29175 -167.85456 32498 ft 622 kts 84°
2026-04-30 21:57 46.30718 -167.73147 32500 ft 621 kts 84°
2026-04-30 21:58 46.32238 -167.60906 32498 ft 621 kts 84°
2026-04-30 21:58 46.33752 -167.48609 32499 ft 621 kts 84°
2026-04-30 21:59 46.35255 -167.36283 32504 ft 621 kts 84°
2026-04-30 22:00 46.37471 -167.17895 32505 ft 621 kts 84°
2026-04-30 22:00 46.39668 -166.99401 32504 ft 621 kts 84°
2026-04-30 22:01 46.41115 -166.87059 32503 ft 621 kts 84°
2026-04-30 22:01 46.42550 -166.74725 32507 ft 621 kts 84°
2026-04-30 22:02 46.43972 -166.62390 32517 ft 620 kts 84°
2026-04-30 22:02 46.45378 -166.50055 32511 ft 619 kts 84°
2026-04-30 22:03 46.46769 -166.37731 32514 ft 618 kts 84°
2026-04-30 22:03 46.48141 -166.25453 32512 ft 616 kts 84°
2026-04-30 22:04 46.49486 -166.13290 32517 ft 614 kts 84°
2026-04-30 22:05 46.51488 -165.94956 32525 ft 612 kts 84°
2026-04-30 22:05 46.52803 -165.82761 32531 ft 610 kts 84°
2026-04-30 22:06 46.54101 -165.70593 32535 ft 609 kts 84°
2026-04-30 22:06 46.56024 -165.52360 32536 ft 608 kts 84°
2026-04-30 22:07 46.57285 -165.40237 32535 ft 605 kts 84°
2026-04-30 22:07 46.58522 -165.28155 32540 ft 603 kts 84°
2026-04-30 22:08 46.59749 -165.16085 32545 ft 602 kts 84°
2026-04-30 22:08 46.60955 -165.04117 32541 ft 602 kts 84°
2026-04-30 22:09 46.62155 -164.92069 32550 ft 601 kts 84°
2026-04-30 22:09 46.63342 -164.80009 32548 ft 601 kts 84°
2026-04-30 22:10 46.64514 -164.67980 32562 ft 600 kts 84°
2026-04-30 22:10 46.65672 -164.55941 32557 ft 599 kts 84°
2026-04-30 22:11 46.67375 -164.38005 32556 ft 598 kts 84°
2026-04-30 22:12 46.68497 -164.26015 32573 ft 596 kts 84°
2026-04-30 22:12 46.69603 -164.14052 32562 ft 595 kts 85°
2026-04-30 22:13 46.70695 -164.02110 32578 ft 593 kts 85°
2026-04-30 22:13 46.71772 -163.90181 32572 ft 592 kts 85°
2026-04-30 22:14 46.72828 -163.78352 32588 ft 591 kts 85°
2026-04-30 22:14 46.73874 -163.66491 32580 ft 590 kts 85°
2026-04-30 22:15 46.74906 -163.54645 32593 ft 588 kts 85°
2026-04-30 22:15 46.75925 -163.42802 32583 ft 587 kts 85°
2026-04-30 22:16 46.76924 -163.31051 32597 ft 586 kts 85°
2026-04-30 22:17 46.78888 -163.07497 32604 ft 583 kts 85°
2026-04-30 22:17 46.80326 -162.89874 32602 ft 582 kts 85°
2026-04-30 22:18 46.81733 -162.72285 32604 ft 580 kts 85°
2026-04-30 22:19 46.83108 -162.54746 32618 ft 579 kts 85°
2026-04-30 22:20 46.84453 -162.37248 32625 ft 577 kts 85°
2026-04-30 22:20 46.85762 -162.19862 32619 ft 575 kts 86°
2026-04-30 22:21 46.86621 -162.08253 32627 ft 574 kts 86°
2026-04-30 22:21 46.87467 -161.96665 32630 ft 573 kts 86°
2026-04-30 22:22 46.88298 -161.85102 32631 ft 572 kts 86°
2026-04-30 22:22 46.89114 -161.73609 32633 ft 571 kts 86°
2026-04-30 22:23 46.89921 -161.62062 32642 ft 570 kts 86°
2026-04-30 22:23 46.90585 -161.52416 32641 ft 569 kts 86°
2026-04-30 22:24 46.91365 -161.40961 32640 ft 568 kts 86°
2026-04-30 22:24 46.92134 -161.29468 32650 ft 567 kts 86°
2026-04-30 22:25 46.92892 -161.17993 32658 ft 566 kts 86°
2026-04-30 22:25 46.93637 -161.06514 32655 ft 566 kts 86°
2026-04-30 22:26 46.94731 -160.89339 32659 ft 565 kts 87°
2026-04-30 22:27 46.95441 -160.77958 32678 ft 564 kts 87°
2026-04-30 22:27 46.96490 -160.60814 32678 ft 562 kts 87°
2026-04-30 22:28 46.97509 -160.43736 32681 ft 561 kts 87°
2026-04-30 22:29 46.98824 -160.21009 32679 ft 559 kts 87°
2026-04-30 22:31 47.00832 -159.81386 32697 ft 557 kts 89°
2026-04-30 22:32 47.01947 -159.53043 32713 ft 557 kts 89°
2026-04-30 22:33 47.03034 -159.24767 32720 ft 557 kts 89°
2026-04-30 22:35 47.04038 -158.96695 32495 ft 565 kts 87°
2026-04-30 22:36 47.04831 -158.73112 32748 ft 590 kts 87°
2026-04-30 22:36 47.05025 -158.67081 32754 ft 593 kts 87°
2026-04-30 22:37 47.05776 -158.42839 32766 ft 596 kts 87°
2026-04-30 22:38 47.06472 -158.18675 32763 ft 593 kts 88°
2026-04-30 22:39 47.06961 -158.00559 32772 ft 592 kts 88°
2026-04-30 22:40 47.07850 -157.64410 32795 ft 590 kts 88°
2026-04-30 22:41 47.08504 -157.34295 32808 ft 590 kts 88°
2026-04-30 22:43 47.09183 -156.98243 32825 ft 591 kts 88°
2026-04-30 22:44 47.09574 -156.74103 32846 ft 590 kts 88°
2026-04-30 22:45 47.10065 -156.37959 32869 ft 590 kts 88°
2026-04-30 22:47 47.10441 -156.01949 32879 ft 589 kts 88°
2026-04-30 22:48 47.10629 -155.77933 32890 ft 588 kts 88°
2026-04-30 22:49 47.10817 -155.41938 32912 ft 587 kts 88°
2026-04-30 22:51 47.10891 -155.06102 32937 ft 586 kts 88°
2026-04-30 22:52 47.10887 -154.88164 32949 ft 585 kts 88°
2026-04-30 22:53 47.10837 -154.64278 32959 ft 584 kts 88°
2026-04-30 22:53 47.10768 -154.46466 32967 ft 584 kts 88°
2026-04-30 22:55 47.10591 -154.16680 32982 ft 583 kts 88°
2026-04-30 22:56 47.10394 -153.92868 32994 ft 583 kts 88°
2026-04-30 22:57 47.10078 -153.63146 33008 ft 582 kts 88°
2026-04-30 22:58 47.09770 -153.39403 33025 ft 581 kts 88°
2026-04-30 22:59 47.09220 -153.03945 33042 ft 579 kts 88°